• In Deutschland
  • Länderverzeichnis
  • Für 7 Tage
  • Wassertemperatur
  • Satellitenkarten
  • Wetterkarte
  • Widgets
  • user-avatar
    Anmelden

    Stündliche Wetter Mykhunky

    Heute, 15 August, Mittwoch

    Zeit Temperatur Niederschläge Wind Luftdruck Luftfeuchtigkeit
    00:00 +20°C° 0 mm 2 m/S 731 mmHg 52%
    01:00 +19°C° 0 mm 2 m/S 731 mmHg 51%
    02:00 +19°C° 0 mm 2 m/S 731 mmHg 54%
    03:00 +19°C° 0 mm 2 m/S 731 mmHg 55%
    04:00 +18°C° 0 mm 2 m/S 731 mmHg 57%
    05:00 +18°C° 0 mm 2 m/S 731 mmHg 58%
    06:00 +19°C° 0,1 mm 2 m/S 731 mmHg 58%
    07:00 +20°C° 0,1 mm 2 m/S 731 mmHg 59%
    08:00 +23°C° 0 mm 2 m/S 731 mmHg 59%
    09:00 +25°C° 0,1 mm 2 m/S 732 mmHg 56%
    10:00 +27°C° 0,1 mm 2 m/S 732 mmHg 53%
    11:00 +28°C° 0,1 mm 2 m/S 732 mmHg 50%
    12:00 +29°C° 0 mm 1 m/S 732 mmHg 49%
    13:00 +30°C° 0 mm 1 m/S 732 mmHg 47%
    14:00 +31°C° 0 mm 1 m/S 732 mmHg 46%
    15:00 +30°C° 0,3 mm 2 m/S 732 mmHg 51%
    16:00 +29°C° 0,3 mm 2 m/S 732 mmHg 56%
    17:00 +28°C° 0,3 mm 3 m/S 732 mmHg 60%
    18:00 +26°C° 0,4 mm 3 m/S 732 mmHg 68%
    19:00 +24°C° 0,4 mm 3 m/S 732 mmHg 75%
    20:00 +21°C° 0,4 mm 3 m/S 732 mmHg 83%
    21:00 +21°C° 0,7 mm 3 m/S 733 mmHg 85%
    22:00 +20°C° 0,7 mm 3 m/S 733 mmHg 88%
    23:00 +19°C° 0,7 mm 2 m/S 733 mmHg 90%

    Morgen, 16 August, Donnerstag

    Zeit Temperatur Niederschläge Wind Luftdruck Luftfeuchtigkeit
    00:00 +19°C° 0,2 mm 2 m/S 733 mmHg 90%
    01:00 +19°C° 0,2 mm 2 m/S 733 mmHg 91%
    02:00 +18°C° 0,2 mm 2 m/S 733 mmHg 91%
    03:00 +18°C° 0,2 mm 2 m/S 733 mmHg 91%
    04:00 +18°C° 0,2 mm 2 m/S 733 mmHg 91%
    05:00 +17°C° 0,2 mm 2 m/S 733 mmHg 92%
    06:00 +18°C° 0,1 mm 2 m/S 734 mmHg 89%
    07:00 +19°C° 0,1 mm 2 m/S 734 mmHg 86%
    08:00 +20°C° 0,1 mm 2 m/S 734 mmHg 83%
    09:00 +21°C° 0 mm 3 m/S 734 mmHg 79%
    10:00 +22°C° 0 mm 3 m/S 734 mmHg 75%
    11:00 +24°C° 0 mm 3 m/S 735 mmHg 70%
    12:00 +24°C° 0 mm 3 m/S 734 mmHg 68%
    13:00 +25°C° 0 mm 2 m/S 734 mmHg 65%
    14:00 +25°C° 0 mm 2 m/S 734 mmHg 63%
    15:00 +25°C° 0 mm 2 m/S 734 mmHg 64%
    16:00 +25°C° 0 mm 2 m/S 734 mmHg 65%
    17:00 +25°C° 0 mm 2 m/S 734 mmHg 65%
    18:00 +23°C° 0,1 mm 2 m/S 734 mmHg 69%
    19:00 +21°C° 0,1 mm 2 m/S 734 mmHg 73%
    20:00 +20°C° 0,1 mm 2 m/S 734 mmHg 78%
    21:00 +21°C° 0,1 mm 1 m/S 734 mmHg 78%
    22:00 +20°C° 0,1 mm 1 m/S 734 mmHg 78%
    23:00 +20°C° 0,1 mm 1 m/S 734 mmHg 78%

    übermorgen, 17 August, Freitag

    Zeit Temperatur Niederschläge Wind Luftdruck Luftfeuchtigkeit
    00:00 +20°C° 0 mm 1 m/S 734 mmHg 79%
    01:00 +20°C° 0 mm 1 m/S 734 mmHg 79%
    02:00 +20°C° 0 mm 1 m/S 734 mmHg 79%
    03:00 +19°C° 0,1 mm 1 m/S 734 mmHg 81%
    04:00 +19°C° 0,1 mm 1 m/S 734 mmHg 82%
    05:00 +19°C° 0,1 mm 1 m/S 734 mmHg 83%
    06:00 +19°C° 0,3 mm 1 m/S 734 mmHg 84%
    07:00 +19°C° 0,3 mm 2 m/S 734 mmHg 84%
    08:00 +19°C° 0,3 mm 2 m/S 734 mmHg 85%
    09:00 +19°C° 0,4 mm 2 m/S 734 mmHg 84%
    10:00 +20°C° 0,4 mm 2 m/S 734 mmHg 83%
    11:00 +20°C° 0,4 mm 2 m/S 734 mmHg 82%
    12:00 +23°C° 0,4 mm 2 m/S 734 mmHg 76%
    13:00 +24°C° 0,4 mm 2 m/S 734 mmHg 71%
    14:00 +25°C° 0,4 mm 2 m/S 734 mmHg 65%
    15:00 +25°C° 0,8 mm 2 m/S 734 mmHg 66%
    16:00 +25°C° 0,8 mm 1 m/S 734 mmHg 67%
    17:00 +25°C° 0,8 mm 1 m/S 733 mmHg 69%
    18:00 +24°C° 0,3 mm 1 m/S 733 mmHg 73%
    19:00 +22°C° 0,3 mm 1 m/S 733 mmHg 78%
    20:00 +21°C° 0,3 mm 1 m/S 733 mmHg 82%
    21:00 +20°C° 0,4 mm 2 m/S 733 mmHg 84%
    22:00 +19°C° 0,4 mm 2 m/S 733 mmHg 86%
    23:00 +19°C° 0,4 mm 2 m/S 733 mmHg 88%

    18 August, Samstag

    Zeit Temperatur Niederschläge Wind Luftdruck Luftfeuchtigkeit
    00:00 +18°C° 0 mm 2 m/S 733 mmHg 88%
    01:00 +19°C° 0 mm 1 m/S 733 mmHg 89%
    02:00 +19°C° 0 mm 1 m/S 733 mmHg 90%
    03:00 +19°C° 0,1 mm 1 m/S 733 mmHg 90%
    04:00 +18°C° 0,1 mm 1 m/S 733 mmHg 91%
    05:00 +18°C° 0,1 mm 1 m/S 733 mmHg 92%
    06:00 +19°C° 0,1 mm 1 m/S 734 mmHg 87%
    07:00 +21°C° 0,1 mm 1 m/S 734 mmHg 83%
    08:00 +22°C° 0,1 mm 1 m/S 734 mmHg 79%
    09:00 +24°C° 0,2 mm 1 m/S 734 mmHg 73%
    10:00 +26°C° 0,2 mm 1 m/S 734 mmHg 67%
    11:00 +27°C° 0,2 mm 1 m/S 734 mmHg 61%
    12:00 +27°C° 2,2 mm 1 m/S 734 mmHg 60%
    13:00 +28°C° 2,2 mm 1 m/S 734 mmHg 58%
    14:00 +28°C° 2,2 mm 1 m/S 734 mmHg 57%
    15:00 +28°C° 0 mm 1 m/S 734 mmHg 57%
    16:00 +28°C° 0 mm 1 m/S 734 mmHg 57%
    17:00 +28°C° 0 mm 1 m/S 734 mmHg 58%
    18:00 +26°C° 0,1 mm 1 m/S 734 mmHg 63%
    19:00 +24°C° 0,1 mm 1 m/S 734 mmHg 68%
    20:00 +23°C° 0,1 mm 1 m/S 734 mmHg 73%
    21:00 +22°C° 0,3 mm 1 m/S 734 mmHg 76%
    22:00 +21°C° 0,3 mm 1 m/S 734 mmHg 79%
    23:00 +21°C° 0,3 mm 1 m/S 734 mmHg 81%

    19 August, Sonntag

    Zeit Temperatur Niederschläge Wind Luftdruck Luftfeuchtigkeit
    00:00 +18°C° 0,1 mm 0 m/S 734 mmHg 83%
    01:00 +18°C° 0,1 mm 0 m/S 734 mmHg 84%
    02:00 +18°C° 0,1 mm 0 m/S 734 mmHg 85%
    03:00 +17°C° 0 mm 0 m/S 734 mmHg 86%
    04:00 +19°C° 0 mm 1 m/S 734 mmHg 87%
    05:00 +19°C° 0 mm 1 m/S 734 mmHg 88%
    06:00 +20°C° 0 mm 1 m/S 734 mmHg 85%
    07:00 +21°C° 0 mm 2 m/S 735 mmHg 81%
    08:00 +23°C° 0 mm 2 m/S 735 mmHg 77%
    09:00 +24°C° 0 mm 2 m/S 735 mmHg 73%
    10:00 +26°C° 0 mm 2 m/S 735 mmHg 68%
    11:00 +27°C° 0 mm 2 m/S 735 mmHg 63%
    12:00 +27°C° 0 mm 2 m/S 735 mmHg 61%
    13:00 +28°C° 0 mm 2 m/S 735 mmHg 58%
    14:00 +28°C° 0 mm 3 m/S 735 mmHg 56%
    15:00 +28°C° 0,2 mm 3 m/S 735 mmHg 58%
    16:00 +28°C° 0,2 mm 3 m/S 735 mmHg 60%
    17:00 +27°C° 0,2 mm 3 m/S 735 mmHg 62%
    18:00 +25°C° 0,2 mm 2 m/S 735 mmHg 67%
    19:00 +24°C° 0,2 mm 2 m/S 735 mmHg 72%
    20:00 +21°C° 0,2 mm 2 m/S 735 mmHg 78%
    21:00 +20°C° 0 mm 2 m/S 735 mmHg 79%
    22:00 +20°C° 0 mm 2 m/S 735 mmHg 79%
    23:00 +19°C° 0 mm 2 m/S 735 mmHg 80%

    20 August, Montag

    Zeit Temperatur Niederschläge Wind Luftdruck Luftfeuchtigkeit
    00:00 +19°C° 0 mm 2 m/S 735 mmHg 82%
    01:00 +18°C° 0 mm 2 m/S 735 mmHg 84%
    02:00 +18°C° 0 mm 2 m/S 735 mmHg 86%
    03:00 +17°C° 0 mm 2 m/S 735 mmHg 88%
    04:00 +17°C° 0 mm 2 m/S 735 mmHg 90%
    05:00 +17°C° 0 mm 3 m/S 735 mmHg 92%
    06:00 +18°C° 0 mm 3 m/S 736 mmHg 88%
    07:00 +19°C° 0 mm 3 m/S 736 mmHg 85%
    08:00 +20°C° 0 mm 3 m/S 736 mmHg 81%
    09:00 +22°C° 0 mm 3 m/S 736 mmHg 75%
    10:00 +24°C° 0 mm 3 m/S 736 mmHg 69%
    11:00 +25°C° 0 mm 3 m/S 737 mmHg 63%
    12:00 +26°C° 0,1 mm 3 m/S 736 mmHg 60%
    13:00 +26°C° 0,1 mm 3 m/S 736 mmHg 57%
    14:00 +27°C° 0,1 mm 3 m/S 736 mmHg 55%
    15:00 +26°C° 0 mm 3 m/S 736 mmHg 57%
    16:00 +26°C° 0 mm 3 m/S 736 mmHg 58%
    17:00 +26°C° 0 mm 3 m/S 736 mmHg 60%
    18:00 +24°C° 0 mm 2 m/S 736 mmHg 67%
    19:00 +21°C° 0 mm 2 m/S 736 mmHg 73%
    20:00 +20°C° 0 mm 2 m/S 736 mmHg 80%
    21:00 +19°C° 0 mm 2 m/S 736 mmHg 82%
    22:00 +20°C° 0 mm 1 m/S 736 mmHg 85%
    23:00 +19°C° 0 mm 1 m/S 736 mmHg 87%
    Mehr zeigen